This demonstration page uses our WeatherBlox Daily Observations layout. Learn more.

Left ArrowRight Arrow

Hourly Observations for August 13, 2020

Temp ( °F °C ) Dew Point ( °F °C ) Humidity (%) Winds ( mph kmh ) Pressure ( in mb ) Visibility ( mi km ) Precip ( " mm )
12:15 am 00:15 Partly Cloudy 65 18.3 64 17.5 95 95 Calm 30.08 1019 10 16 0.00 0.00
12:35 am 00:35 Clear 66 18.8 64 17.6 93 93 E 5 7 30.08 1019 10 16 0.00 0.00
12:55 am 00:55 Mostly Cloudy 65 18.5 64 17.8 96 96 Calm 30.08 1019 10 16 0.00 0.00
1:15 am 01:15 Partly Cloudy 66 19.1 65 18.2 95 95 Calm 30.08 1019 10 16 0.00 0.00
1:35 am 01:35 Clear 66 18.8 64 18 95 95 Calm 30.08 1019 10 16 0.00 0.00
1:55 am 01:55 Clear 65 18.6 64 17.6 94 94 Calm 30.08 1019 10 16 0.00 0.00
2:15 am 02:15 Clear 63 17.3 62 16.8 97 97 Calm 30.10 1019 10 16 0.00 0.00
2:35 am 02:35 Clear 63 17 62 16.7 98 98 Calm 30.09 1019 7 11 0.00 0.00
2:55 am 02:55 Clear 63 17 62 16.9 99 99 Calm 30.08 1019 10 16 0.00 0.00
3:15 am 03:15 Clear 63 17.2 63 17 99 99 Calm 30.08 1018 10 16 0.00 0.00
3:35 am 03:35 Clear 62 16.9 62 16.9 100 100 Calm 30.08 1019 7 11 0.00 0.00
3:55 am 03:55 Clear 62 16.7 62 16.6 99 99 Calm 30.09 1019 7 11 0.00 0.00
4:15 am 04:15 Clear 62 16.9 62 16.7 99 99 Calm 30.08 1019 7 11 0.00 0.00
4:35 am 04:35 Clear 63 17.4 62 16.8 96 96 Calm 30.08 1018 10 16 0.00 0.00
4:55 am 04:55 Clear 61 16.2 61 16 99 99 Calm 30.08 1019 7 11 0.00 0.00
5:15 am 05:15 Clear 61 16 60 15.7 98 98 Calm 30.09 1019 10 16 0.00 0.00
5:35 am 05:35 Clear 61 16.1 61 16 99 99 Calm 30.09 1019 7 11 0.00 0.00
5:55 am 05:55 Clear 62 16.5 61 16.1 98 98 Calm 30.09 1019 10 16 0.00 0.00
6:15 am 06:15 Clear 61 16.1 61 15.9 99 99 Calm 30.09 1019 7 11 0.00 0.00
6:35 am 06:35 Clear 61 16.2 61 16 99 99 Calm 30.08 1019 10 16 0.00 0.00
6:55 am 06:55 Clear 61 16.3 61 16 98 98 Calm 30.09 1019 10 16 0.00 0.00
7:15 am 07:15 Sunny with Mist and Fog 61 16.2 61 16.1 99 99 Calm 30.09 1019 5 8 0.00 0.00
7:35 am 07:35 Sunny 61 16.1 61 16 99 99 Calm 30.09 1019 7 11 0.00 0.00
7:55 am 07:55 Sunny 63 17.4 62 16.8 96 96 Calm 30.10 1019 10 16 0.00 0.00
8:15 am 08:15 Sunny 65 18.5 63 17.4 93 93 Calm 30.09 1019 10 16 0.00 0.00
8:35 am 08:35 Sunny 67 19.5 64 17.6 89 89 NE 5 7 30.09 1019 10 16 0.00 0.00
8:55 am 08:55 Sunny 68 20.2 65 18.2 88 88 Calm 30.10 1019 10 16 0.00 0.00
9:15 am 09:15 Sunny 70 21.2 65 18.4 84 84 E 5 7 30.09 1019 10 16 0.00 0.00
9:35 am 09:35 Sunny 72 22.1 66 18.9 82 82 ENE 5 7 30.09 1019 10 16 0.00 0.00
9:55 am 09:55 Sunny 73 22.5 66 19.1 81 81 E 5 7 30.09 1019 10 16 0.00 0.00
10:15 am 10:15 Sunny 74 23.4 67 19.7 80 80 E 5 7 30.08 1018 10 16 0.00 0.00
10:35 am 10:35 Sunny 75 24.1 67 19.5 76 76 ENE 3 6 30.07 1018 10 16 0.00 0.00
10:55 am 10:55 Sunny 76 24.5 67 19.3 73 73 NE 8 13 30.07 1018 10 16 0.00 0.00
11:15 am 11:15 Sunny 76 24.6 66 18.8 70 70 ENE 6 9 30.07 1018 10 16 0.00 0.00
11:35 am 11:35 Sunny 78 25.4 67 19.2 69 69 E 6 9 30.07 1018 10 16 0.00 0.00
11:55 am 11:55 Sunny 77 25.2 65 18.4 66 66 NE 5 7 30.07 1018 10 16 0.00 0.00
12:15 pm 12:15 Sunny 78 25.5 66 19.1 68 68 NNE 5 7 30.07 1018 10 16 0.00 0.00
12:35 pm 12:35 Sunny 79 26 66 18.9 65 65 NNE 5 7 30.07 1018 10 16 0.00 0.00
12:55 pm 12:55 Sunny 79 25.9 65 18.4 63 63 E 3 6 30.07 1018 10 16 0.00 0.00
1:15 pm 13:15 Sunny 80 26.4 66 19 64 64 Calm 30.07 1018 10 16 0.00 0.00
1:35 pm 13:35 Sunny 79 26.1 65 18.4 63 63 Calm 30.07 1018 10 16 0.00 0.00
1:55 pm 13:55 Sunny 79 26.1 67 19.2 66 66 NNW 3 6 30.06 1018 10 16 0.00 0.00
2:15 pm 14:15 Sunny 79 26.1 66 18.7 64 64 N 6 9 30.05 1017 10 16 0.00 0.00
2:35 pm 14:35 Sunny 78 25.8 68 20 70 70 N 6 9 30.04 1017 10 16 0.00 0.00
2:55 pm 14:55 Sunny 78 25.8 67 19.3 67 67 NNW 5 7 30.04 1017 10 16 0.00 0.00
3:15 pm 15:15 Sunny 78 25.5 68 19.8 71 71 N 5 7 30.03 1017 10 16 0.00 0.00
3:35 pm 15:35 Sunny 79 26 67 19.7 68 68 N 7 11 30.02 1016 10 16 0.00 0.00
3:55 pm 15:55 Sunny 79 26.2 68 20.2 70 70 NE 6 9 30.01 1016 10 16 0.00 0.00
4:15 pm 16:15 Sunny 79 26.2 69 20.4 70 70 NE 5 7 30.01 1016 10 16 0.00 0.00
4:35 pm 16:35 Sunny 79 26 69 20.6 72 72 NE 3 6 30.00 1016 10 16 0.00 0.00
4:55 pm 16:55 Sunny 79 26 70 21 74 74 NNE 3 6 30.00 1016 10 16 0.00 0.00
5:15 pm 17:15 Sunny 78 25.7 70 21.3 77 77 Calm 30.00 1016 10 16 0.00 0.00
5:35 pm 17:35 Sunny 78 25.7 71 21.4 77 77 Calm 29.99 1015 10 16 0.00 0.00
5:55 pm 17:55 Sunny 80 26.8 70 21.1 71 71 Calm 29.98 1015 10 16 0.00 0.00
6:15 pm 18:15 Sunny 79 26.2 71 21.4 75 75 Calm 29.99 1015 10 16 0.00 0.00
6:35 pm 18:35 Sunny 78 25.3 71 21.8 81 81 N 3 6 29.99 1016 10 16 0.00 0.00
6:55 pm 18:55 Sunny 78 25.3 72 22.1 83 83 Calm 29.99 1016 10 16 0.00 0.00
7:15 pm 19:15 Sunny 76 24.6 72 22.3 87 87 N 3 6 29.99 1016 10 16 0.00 0.00
7:35 pm 19:35 Sunny 75 24.1 72 22 88 88 N 3 6 29.99 1016 10 16 0.00 0.00
7:55 pm 19:55 Sunny 76 24.3 72 22.1 88 88 N 3 6 30.00 1016 10 16 0.00 0.00
8:15 pm 20:15 Sunny 74 23.4 72 22 92 92 N 5 7 30.01 1016 10 16 0.00 0.00
8:35 pm 20:35 Sunny 73 23 70 21.1 89 89 N 5 7 30.01 1016 10 16 0.00 0.00
8:55 pm 20:55 Clear 73 22.5 70 21 91 91 N 6 9 30.01 1016 10 16 0.00 0.00
9:15 pm 21:15 Clear 72 22 69 20.5 91 91 NNE 6 9 30.02 1017 10 16 0.00 0.00
9:35 pm 21:35 Clear 71 21.7 68 20.1 91 91 NNE 6 9 30.02 1017 10 16 0.00 0.00
9:55 pm 21:55 Clear 72 22 68 19.9 88 88 NE 6 9 30.03 1017 10 16 0.00 0.00
10:15 pm 22:15 Clear 71 21.7 67 19.6 88 88 NNE 5 7 30.03 1017 10 16 0.00 0.00
10:35 pm 22:35 Clear 71 21.5 67 19.7 90 90 NE 7 11 30.03 1017 10 16 0.00 0.00
10:55 pm 22:55 Clear 71 21.6 67 19.5 88 88 ENE 5 7 30.03 1017 10 16 0.00 0.00
11:15 pm 23:15 Clear 71 21.5 67 19.3 87 87 NE 5 7 30.02 1017 10 16 0.00 0.00
11:35 pm 23:35 Clear 71 21.4 66 19 86 86 NE 5 7 30.02 1017 10 16 0.00 0.00
11:55 pm 23:55 Clear 69 20.7 66 19.1 91 91 NE 3 6 30.02 1017 10 16 0.00 0.00

Powered by AerisWeather